Location: Clairmont
(55.2667°N, 118.8000°W)
Time: 08:33:58
(UTC+00:00)

N. Korean satellite - Pass Details

Date: 01 November 2020
Orbit: 453 x 503 km, 97.2° (Epoch: 03 December)

Event Time Altitude Azimuth Distance (km) Brightness Sun altitude
Rises 14:08:35 0° 10° (N) 2,486 10.1 -7.9°
Reaches altitude 10° 14:10:40 10° 5° (N) 1,605 9.1 -7.6°
Maximum altitude 14:13:59 48° 290° (WNW) 604 6.6 -7.1°
Drops below altitude 10° 14:17:17 10° 215° (SW) 1,594 9.0 -6.7°
Sets 14:19:21 0° 210° (SSW) 2,466 10.0 -6.4°
